EW1578 Weather Reports


Display with metric or nautical units.
time (UTC)temp
F
wind
direction
speed
MPH
gust
MPH
rain 1hr
in
rain 24hr
in
rain mn
in
humidity
%
barometer
mb
20190119150056 34 104 2.0 6.0 0.00 0.02 0.00 76 1023.8
20190119144600 34 87 1.0 5.0 0.00 0.02 0.00 79 1023.8
20190119143057 33 118 0.0 5.0 0.00 0.02 0.00 83 1023.7
20190119141551 33 103 0.0 3.0 0.00 0.02 0.00 87 1023.6
20190119140053 33 98 0.0 2.0 0.00 0.02 0.00 89 1023.8
20190119134601 32 101 0.0 0.0 0.00 0.02 0.00 88 1023.6
20190119133043 32 86 0.0 1.0 0.00 0.02 0.00 88 1023.4
20190119131540 32 73 0.0 4.0 0.00 0.02 0.00 89 1023.1
20190119130038 32 86 0.0 1.0 0.00 0.02 0.00 88 1022.9
20190119124545 31 86 0.0 0.0 0.00 0.02 0.00 87 1022.8
20190119123112 31 86 0.0 1.0 0.00 0.02 0.00 88 1022.7
20190119121535 31 86 0.0 0.0 0.00 0.02 0.00 88 1022.5
20190119120043 31 86 0.0 0.0 0.00 0.02 0.00 88 1022.3
20190119114531 31 86 0.0 1.0 0.00 0.02 0.00 88 1022.1
20190119113055 31 85 0.0 0.0 0.00 0.02 0.00 86 1021.9
20190119111540 31 90 0.0 3.0 0.00 0.02 0.00 86 1021.9
20190119110059 30 90 0.0 2.0 0.00 0.02 0.00 86 1021.6
20190119104530 30 76 0.0 4.0 0.00 0.02 0.00 86 1021.8
20190119103052 31 315 0.0 0.0 0.00 0.02 0.00 86 1022.9
20190119101517 31 315 0.0 0.0 0.00 0.02 0.00 86 1022.8
20190119100034 31 315 0.0 0.0 0.00 0.02 0.00 86 1022.6
20190119094532 31 315 0.0 0.0 0.00 0.02 0.00 85 1022.7
20190119093018 31 315 0.0 0.0 0.00 0.02 0.00 85 1022.4
20190119091532 31 315 0.0 0.0 0.00 0.02 0.00 85 1022.4
20190119090013 31 315 0.0 0.0 0.00 0.02 0.00 85 1022.4
20190119084512 31 315 0.0 2.0 0.00 0.02 0.00 83 1022.3
20190119083012 32 288 0.0 0.0 0.00 0.02 0.00 83 1022.4
20190119081526 32 288 0.0 0.0 0.00 0.02 0.00 83 1022.6
20190119080035 33 288 0.0 0.0 0.00 0.02 0.00 81 1022.7
20190119074505 32 288 0.0 1.0 0.00 0.02 0.00 86 1023.2
20190119073023 32 241 0.0 0.0 0.00 0.02 0.00 90 1022.9
20190119071504 32 241 0.0 0.0 0.00 0.02 0.00 91 1023.2
20190119070002 32 275 0.0 2.0 0.00 0.02 0.00 92 1023.4
20190119064719 32 292 0.0 1.0 0.00 0.02 0.00 93 1022.9
20190119063150 32 293 0.0 1.0 0.00 0.02 0.00 93 1022.7
20190119061648 31 293 0.0 1.0 0.00 0.02 0.00 94 1022.6
20190119060227 31 293 0.0 2.0 0.00 0.02 0.00 94 1022.5
20190119054720 31 296 0.0 1.0 0.00 0.02 0.00 94 1022.3
20190119053139 31 5 0.0 0.0 0.00 0.02 0.00 94 1022.3
20190119051638 31 5 0.0 0.0 0.00 0.02 0.00 93 1022.5
20190119050146 31 256 0.0 0.0 0.00 0.02 0.00 93 1022.5
20190119044628 32 256 0.0 0.0 0.00 0.02 0.02 93 1022.7
20190119043108 32 256 0.0 0.0 0.00 0.02 0.02 92 1022.5
20190119041658 32 256 0.0 0.0 0.00 0.02 0.02 92 1022.6
20190119040119 33 256 0.0 1.0 0.00 0.02 0.02 92 1022.6
20190119034732 33 255 0.0 2.0 0.00 0.02 0.02 93 1022.4
20190119033119 32 260 0.0 4.0 0.00 0.02 0.02 93 1022.2
20190119031606 32 235 0.0 3.0 0.00 0.02 0.02 94 1022.1
20190119030139 32 244 0.0 0.0 0.65 0.00 0.02 93 1022.0
20190119024653 32 248 0.0 3.0 0.00 0.02 0.02 93 1021.7
20190119023109 32 235 0.0 2.0 0.00 0.02 0.02 93 1021.3
20190119021629 32 244 0.0 3.0 0.00 0.02 0.02 92 1021.2
20190119014620 32 279 2.0 7.0 0.00 0.02 0.02 93 1021.2
20190119013117 32 261 2.0 7.0 0.00 0.02 0.02 93 1020.9
20190119011615 32 255 0.0 4.0 0.00 0.02 0.02 93 1020.7
20190119010052 32 242 0.0 4.0 0.00 0.02 0.02 93 1020.6
20190119004609 32 244 1.0 5.0 0.00 0.02 0.02 93 1020.5
20190118230112 32 233 0.0 2.0 0.00 0.02 0.02 92 1019.2
20190118224550 32 244 0.0 3.0 0.00 0.02 0.02 92 1019.3
20190118223042 32 240 0.0 4.0 0.00 0.02 0.02 91 1019.2
20190118221606 32 226 2.0 7.0 0.00 0.02 0.02 91 1019.2
20190118220053 33 250 2.0 7.0 0.00 0.02 0.02 91 1019.1
20190118214606 33 256 0.0 6.0 0.00 0.02 0.02 90 1019.0
20190118213122 33 249 2.0 4.0 0.00 0.02 0.02 90 1018.8
20190118211608 33 257 2.0 6.0 0.00 0.02 0.02 90 1018.7
20190118210046 33 261 2.0 7.0 0.00 0.02 0.02 90 1018.6
20190118204603 33 257 3.0 6.0 0.00 0.02 0.02 90 1018.6
20190118203102 33 234 1.0 6.0 0.00 0.02 0.02 90 1018.3
20190118201621 33 279 3.0 9.0 0.00 0.02 0.02 91 1018.7
20190118200113 34 271 5.0 8.0 0.00 0.02 0.02 91 1018.7
20190118194551 34 265 2.0 6.0 0.00 0.02 0.02 92 1018.2
20190118193039 33 256 2.0 10.0 0.01 0.02 0.02 92 1018.0
20190118190051 33 248 0.0 5.0 0.01 0.02 0.02 94 1017.8
20190118184544 33 293 0.0 4.0 0.01 0.02 0.02 95 1017.7
20190118183042 32 288 0.0 2.0 0.01 0.01 0.01 95 1017.9
20190118181538 31 264 0.0 3.0 0.01 0.01 0.01 95 1017.9
20190118180033 31 290 0.0 1.0 0.01 0.01 0.01 94 1018.2
20190118174530 31 49 0.0 2.0 0.01 0.01 0.01 94 1018.4
20190118173021 31 71 0.0 2.0 0.00 0.00 0.00 94 1018.5
20190118171511 31 77 0.0 1.0 0.00 0.00 0.00 93 1018.9
20190118170034 31 77 0.0 2.0 0.00 0.00 0.00 93 1019.2
20190118164520 31 77 0.0 1.0 0.00 0.00 0.00 93 1019.3
20190118163010 30 77 0.0 0.0 0.00 0.00 0.00 93 1019.5
20190118161510 30 77 0.0 0.0 0.00 0.00 0.00 93 1019.5
20190118160004 30 77 0.0 0.0 0.00 0.00 0.00 93 1019.6
20190118154517 30 77 0.0 0.0 0.00 0.00 0.00 93 1019.8
20190118153216 29 77 0.0 0.0 0.00 0.00 0.00 93 1019.9
20190118151741 29 87 0.0 0.0 0.00 0.00 0.00 93 1019.8